Location: Newark
(50.1395°N, 5.5234°W)
Time: 09:06:23
(UTC+00:00)

ISS - Visible Passes

Search period start: 06 March 2021 00:00
Search period end: 16 March 2021 00:00
Orbit: 417 x 422 km, 51.6° (Epoch: 05 March)

Date Brightness Start Highest point End Pass type
(mag) Time Alt. Az. Time Alt. Az. Time Alt. Az.
06 Mar -3.4 04:44:22 64° NE 04:44:22 64° NE 04:47:27 10° E visible
06 Mar -3.4 06:17:36 10° WNW 06:20:52 52° SSW 06:24:09 10° SE visible
07 Mar -1.1 03:58:45 20° E 03:58:45 20° E 03:59:54 10° E visible
07 Mar -3.8 05:31:43 26° W 05:33:26 70° SSW 05:36:47 10° ESE visible
08 Mar -3.7 04:46:10 78° ESE 04:46:10 78° ESE 04:49:20 10° ESE visible
09 Mar -1.2 04:00:41 20° E 04:00:41 20° E 04:01:50 10° E visible
09 Mar -3.0 05:33:39 23° W 05:35:09 37° SSW 05:38:16 10° SE visible
10 Mar -3.2 04:48:17 45° S 04:48:17 45° S 04:51:01 10° SE visible
11 Mar -1.0 04:03:01 15° ESE 04:03:01 15° ESE 04:03:38 10° ESE visible
11 Mar -2.1 05:36:00 17° SW 05:36:41 18° SW 05:39:02 10° S visible
12 Mar -1.8 04:50:55 18° S 04:50:55 18° S 04:52:12 10° SSE visible
